Regional Weather Roundup
Issued by NWS

Home | Current Version | Previous Version | Text Only | Print | Product List | Glossary On
Versions: 1 2 3 4 5 6 7 8 9 10 11 12 13 14 15 16 17 18 19 20 21 22 23 24 25 26 27 28 29 30 31 32 33 34 35 36 37 38 39 40 41 42 43 44 45 46 47 48
000
ASUS45 KREV 272110
RWRNV
NEVADA REGIONAL WEATHER ROUNDUP
NATIONAL WEATHER SERVICE RENO NV
100 PM PST TUE JAN 27 2015

NOTE: "FAIR" INDICATES FEW OR NO CLOUDS BELOW 12,000 FEET WITH NO
SIGNIFICANT WEATHER AND/OR OBSTRUCTIONS TO VISIBILITY.

NVZ001-003-004-272200-
WESTERN NEVADA

CITY           SKY/WX    TMP DP  RH WIND       PRES   REMARKS
RENO           CLOUDY    50  33  52 W20       30.18S
CARSON CITY    FAIR      45  36  70 S7G22     30.20F
PYRAMID LAKE     N/A     52 N/A N/A SW6         N/A
FALLON         LGT RAIN  46  42  86 SW10      30.18F
LOVELOCK       LGT RAIN  45 N/A N/A S10       30.16S
HAWTHORNE      MOSUNNY   50  39  66 NW6       30.19F
$$

NVZ002-CAZ072-073-272200-
NORTHERN AND CENTRAL SIERRA

CITY           SKY/WX    TMP DP  RH WIND       PRES   REMARKS
S. LAKE TAHOE  LGT RAIN  39  33  79 CALM      30.24S
TRUCKEE        DRIZZLE   37  36  93 S3        30.25S
SQUAW VLY 8000   N/A     30  30 100 CALM        N/A
BLUE CANYON    CLOUDY    43  30  60 CALM      30.26S
MAMMOTH LAKES  CLOUDY    41  36  81 SE7       30.21F
BRIDGEPORT     CLOUDY    43  29  57 S6        30.19S
$$

NVZ030-031-036-272200-
NORTHERN NEVADA

CITY           SKY/WX    TMP DP  RH WIND       PRES   REMARKS
ELKO           CLOUDY    45  40  82 S9        30.12F
WINNEMUCCA     LGT RAIN  43  39  86 CALM      30.13S FOG
WENDOVER       PTSUNNY   45  34  65 S6        30.16F
$$

NVZ035-037-272200-
CENTRAL NEVADA

CITY           SKY/WX    TMP DP  RH WIND       PRES   REMARKS
ELY            CLOUDY    45  34  65 S10G31    30.19F
EUREKA           N/A     50  35  56 S23       30.13F
$$

NVZ013-014-272200-
SOUTH CENTRAL NEVADA

CITY           SKY/WX    TMP DP  RH WIND       PRES   REMARKS
TONOPAH        CLOUDY    48  39  71 S21       30.19F
$$

NVZ017-020-022-272200-
SOUTHERN NEVADA

CITY           SKY/WX    TMP DP  RH WIND       PRES   REMARKS
LAS VEGAS      PTSUNNY   61  48  62 CALM      30.18F
N. LAS VEGAS   MOSUNNY   59  48  67 E8        30.21F
NELLIS AFB     MOSUNNY   60  50  71 E6        30.21F
HENDERSON      MOSUNNY   59  50  72 VRB6      30.23F
MERCURY        CLOUDY    54  45  71 SE3       30.19F
$$



USA.gov is the U.S. government's official web portal to all federal, state and local government web resources and services.